Weather in Sharovichi

Russia / Bryansk Oblast     53°57′47″N   33°44′41″E
temp.,
°C
wind,
m/s
gust,
m/s
humid.,
%
clouds,
%
prec.,
mm/h
press.,
hPa
HPBL,
m
19 september, sun
sun1900:00+5e81895100 8.3 1014805
03:00+6e71696100 18.8 1013880
06:00+6e71595100 5.1 1012897
09:00+7e71496100 11.3 1011879
12:00+7e71495100 3.4 1011848
15:00+7e61396100 9.4 1011770
18:00+7e51296100 1.3 1011728
21:00+7e51096100 1.5 1010657
20 september, mon
mon2000:00+7ene51097100 0.1 1010569
03:00+7ene51197100 0.2 1009561
06:00+7ene61197100 0.2 1008575
09:00+7ene61297100 0.3 1008626
12:00+7ene61396100 2.1 1008650
15:00+7ene71396100 6.9 1007610
18:00+7ene61396100 4.1 1008654
21:00+6ene51096100 4.8 1009589
21 september, tue
tue2100:00+6ene4997100 1.4 1009545
03:00+6ne4897100 2.6 1009492
06:00+6nne3698100 0.8 1008356
09:00+6nne3698100 1.1 1008256
12:00+6n3897100 0.8 1008425
15:00+7n4898100 2.6 1009442
18:00+7n4798100 1.4 1009316
21:00+7n3699100 1.9 1010332
22 september, wed
wed2200:00+7ne2698100 0.6 1011346
03:00+6nne2497100 0.8 1011157
06:00+6nnw2399100 0.1 101197
09:00+7nne3897100 2.7 1011557
12:00+7nne3795100 0.8 1012566
15:00+7n3694100 0.9 1013531
18:00+7n3794100 0.0 1013498
21:00+6n2596100 0.1 1014341
23 september, thu
thu2300:00+6nnw2397100 0.0 1013205
03:00+6nnw1297100 0.0 1013133
06:00+6n1196100 0.0 101365
09:00+6ne0095100 0.1 1013140
12:00+7sse1194100 0.3 1013150
15:00+7s2496100 0.8 1013264
18:00+6sse3695100 0.1 1013396
21:00+6s3798100 1.0 1013488